ORBCOMM FM113 [+] (41185 NORAD) Tracking and Keplerian Element Data

This shows tracking and keplerian element data for the satellite.

Feedback or suggestion? Click here.




ElementValue
Catalog41185
NameORBCOMM FM113 [+]
Epoch Orbit15571
Epoch Day322.52397833
Epoch Year2018
RAAN335.2303
Inclination47.0025
Eccentricity0.0003041
Argument of Perigee254.7398
Mean Anonmoly105.315
Mean Motion14.54742991
Decay Rate-2.4E-07
L11 41185U 15081G 18322.52397833 -.00000024 00000-0 32856-4 0 9995
L22 41185 47.0025 335.2303 0003041 254.7398 105.3150 14.54742991155714

Live tracking and technical data element details for ORBCOMM FM113 [+] (NORAD 41185). ORBCOMM FM113 [+] can be tracked NOW for your location showing map with azimuth and elevation plus other details from your city location.

Track the satellite on the map from your city or location and see movement details for azimuth, elevation, latitude, longitude, range, height, and movement on the map or in text.







IsCatalogInMostPopularTable: catalog: 41185, numindb: 119
Update: records affected: 1



GetName: 41185 ORBCOMM FM113 [+]

Hit Count: updated at: Mon, 19 Nov 2018 11:28:55 GMT